Torna al catalogo

STARLINK-4017

AttivoComunicazioniVLEO
NORAD 52682·PAYLOAD·🇺🇸 United States

Lanciato May 18, 2022 da Cape Canaveral Space Force Station

Loading…

Prossimi Passaggi (prossime 24 ore)

TLE

AggiornatoSource: CelesTrak SupGP

Epoca: Sep 14, 2026, 20:48 UTC

1 52682C 22053AC  26257.86715278  .00314530  00000+0  13509-1 0  2572
2 52682  53.1605  13.5676 0001229  79.4449 253.0608 15.22006300    18

Traccia STARLINK-4017 in tempo reale con AllMySat

Download on the App Store